Torna al catalogo

STARLINK-37163

AttivoComunicazioniVLEO
NORAD 68264·PAYLOAD·🇺🇸 United States

Lanciato Mar 19, 2026 da Vandenberg Space Force Base

Loading…

Prossimi Passaggi (prossime 24 ore)

TLE

AggiornatoSource: CelesTrak SupGP

Epoca: Sep 14, 2026, 23:25 UTC

1 68264C 26055C   26257.97618056 -.00068717  00000+0 -20302-2 0  2574
2 68264  53.1578 155.6096 0001185  90.0196 289.6923 15.34426110    16

Traccia STARLINK-37163 in tempo reale con AllMySat

Download on the App Store